H1 CPF 2 NER 2021 3 25 9 084 01 glonass121 H2 1000702 9121 36401 2021 3 25 0 0 0 2021 3 28 23 45 0 900 1 1 0 0 0 1 H9 10 0 59298 0.00000 0 23351067.966 9017527.022 -5192710.594 10 0 59298 900.00000 0 22598472.968 8604980.564 -8293124.300 10 0 59298 1800.00000 0 21451867.300 8187983.233 -11233478.940 10 0 59298 2700.00000 0 19931544.892 7823229.425 -13956986.761 10 0 59298 3600.00000 0 18070549.605 7563108.239 -16410995.972 10 0 59298 4500.00000 0 15913473.064 7453320.663 -18547994.303 10 0 59298 5400.00000 0 13514788.190 7530783.311 -20326519.394 10 0 59298 6300.00000 0 10936784.776 7821906.471 -21711959.460 10 0 59298 7200.00000 0 8247189.987 8341319.144 -22677229.220 10 0 59298 8100.00000 0 5516569.563 9091095.955 -23203307.965 10 0 59298 9000.00000 0 2815614.903 10060520.619 -23279628.713 10 0 59298 9900.00000 0 212426.525 11226398.820 -22904309.557 10 0 59298 10800.00000 0 -2230094.734 12553910.850 -22084220.897 10 0 59298 11700.00000 0 -4456641.020 13997971.904 -20834884.888 10 0 59298 12600.00000 0 -6421575.369 15505046.319 -19180206.473 10 0 59298 13500.00000 0 -8090606.692 17015342.530 -17152038.489 10 0 59298 14400.00000 0 -9441990.382 18465298.531 -14789586.757 10 0 59298 15300.00000 0 -10467202.397 19790254.264 -12138664.559 10 0 59298 16200.00000 0 -11171056.794 20927198.237 -9250809.489 10 0 59298 17100.00000 0 -11571260.239 21817471.317 -6182279.019 10 0 59298 18000.00000 0 -11697421.382 22409311.344 -2992944.553 10 0 59298 18900.00000 0 -11589556.838 22660128.266 254893.559 10 0 59298 19800.00000 0 -11296157.828 22538410.477 3497745.179 10 0 59298 20700.00000 0 -10871901.079 22025178.745 6672197.045 10 0 59298 21600.00000 0 -10375103.538 21114923.725 9716179.494 10 0 59298 22500.00000 0 -9865031.855 19815985.649 12570205.616 10 0 59298 23400.00000 0 -9399183.963 18150359.347 15178555.852 10 0 59298 24300.00000 0 -9030661.063 16152932.996 17490382.665 10 0 59298 25200.00000 0 -8805743.921 13870193.635 19460712.078 10 0 59298 26100.00000 0 -8761777.892 11358455.692 21051321.616 10 0 59298 27000.00000 0 -8925456.953 8681688.909 22231477.513 10 0 59298 27900.00000 0 -9311579.159 5909038.747 22978517.570 10 0 59298 28800.00000 0 -9922324.963 3112144.849 23278269.709 10 0 59298 29700.00000 0 -10747087.090 362370.646 23125300.057 10 0 59298 30600.00000 0 -11762856.911 -2271940.093 22522988.030 10 0 59298 31500.00000 0 -12935148.642 -4728066.045 21483429.381 10 0 59298 32400.00000 0 -14219420.283 -6951263.808 20027171.464 10 0 59298 33300.00000 0 -15562929.731 -8896780.599 18182787.987 10 0 59298 34200.00000 0 -16906946.886 -10531443.577 15986303.293 10 0 59298 35100.00000 0 -18189228.321 -11834763.373 13480478.670 10 0 59298 36000.00000 0 -19346650.970 -12799509.703 10713975.309 10 0 59298 36900.00000 0 -20317895.181 -13431738.739 7740410.504 10 0 59298 37800.00000 0 -21046066.125 -13750274.389 4617325.168 10 0 59298 38700.00000 0 -21481145.504 -13785667.847 1405081.977 10 0 59298 39600.00000 0 -21582172.775 -13578680.719 -1834285.511 10 0 59298 40500.00000 0 -21319066.422 -13178356.191 -5038251.880 10 0 59298 41400.00000 0 -20674010.372 -12639759.123 -8144985.915 10 0 59298 42300.00000 0 -19642348.606 -12021479.162 -11094522.458 10 0 59298 43200.00000 0 -18232950.881 -11383000.379 -13829899.346 10 0 59298 44100.00000 0 -16468033.542 -10782046.136 -16298239.314 10 0 59298 45000.00000 0 -14382441.560 -10272008.939 -18451757.574 10 0 59298 45900.00000 0 -12022419.488 -9899571.694 -20248677.070 10 0 59298 46800.00000 0 -9443919.657 -9702619.178 -21654034.783 10 0 59298 47700.00000 0 -6710514.830 -9708527.097 -22640363.994 10 0 59298 48600.00000 0 -3890998.651 -9932901.077 -23188239.343 10 0 59298 49500.00000 0 -1056770.336 -10378819.913 -23286673.468 10 0 59298 50400.00000 0 1720890.500 -11036617.122 -22933356.282 10 0 59298 51300.00000 0 4373547.816 -11884212.829 -22134730.397 10 0 59298 52200.00000 0 6838220.015 -12887985.373 -20905898.912 10 0 59298 53100.00000 0 9059769.365 -14004149.291 -19270364.740 10 0 59298 54000.00000 0 10992969.941 -15180584.797 -17259603.817 10 0 59298 54900.00000 0 12604166.560 -16359044.128 -14912477.895 10 0 59298 55800.00000 0 13872453.515 -17477643.235 -12274496.174 10 0 59298 56700.00000 0 14790321.804 -18473534.140 -9396938.556 10 0 59298 57600.00000 0 15363745.873 -19285644.341 -6335856.731 10 0 59298 58500.00000 0 15611704.824 -19857365.722 -3150972.676 10 0 59298 59400.00000 0 15565157.694 -20139076.609 95503.036 10 0 59298 60300.00000 0 15265516.357 -20090387.177 3340108.399 10 0 59298 61200.00000 0 14762681.834 -19682009.917 6519395.977 10 0 59298 62100.00000 0 14112729.261 -18897173.079 9571200.312 10 0 59298 63000.00000 0 13375342.342 -17732514.916 12435879.126 10 0 59298 63900.00000 0 12611109.081 -16198419.458 15057501.248 10 0 59298 64800.00000 0 11878796.522 -14318779.074 17384955.795 10 0 59298 65700.00000 0 11232722.647 -12130194.191 19372959.288 10 0 59298 66600.00000 0 10720338.770 -9680645.067 20982940.091 10 0 59298 67500.00000 0 10380125.841 -7027693.118 22183782.849 10 0 59298 68400.00000 0 10239893.724 -4236289.114 22952419.158 10 0 59298 69300.00000 0 10315554.407 -1376281.856 23274254.315 10 0 59298 70200.00000 0 10610419.178 1480267.200 23143423.826 10 0 59298 71100.00000 0 11115047.069 4261850.713 22562876.954 10 0 59298 72000.00000 0 11807648.253 6900248.379 21544288.103 10 0 59298 72900.00000 0 12655022.709 9333113.399 20107800.157 10 0 59298 73800.00000 0 13613992.266 11506306.889 18281606.860 10 0 59298 74700.00000 0 14633263.860 13375885.768 16101384.188 10 0 59298 75600.00000 0 15655644.473 14909664.833 13609583.066 10 0 59298 76500.00000 0 16620514.226 16088291.605 10854597.953 10 0 59298 77400.00000 0 17466454.001 16905792.745 7889827.819 10 0 59298 78300.00000 0 18133918.213 17369572.767 4772647.508 10 0 59298 79200.00000 0 18567842.030 17499867.963 1563308.763 10 0 59298 80100.00000 0 18720075.327 17328680.512 -1676208.768 10 0 59298 81000.00000 0 18551543.123 16898238.742 -4883375.700 10 0 59298 81900.00000 0 18034043.435 16259048.464 -7996299.125 10 0 59298 82800.00000 0 17151608.449 15467616.633 -10954895.637 10 0 59298 83700.00000 0 15901372.506 14583941.736 -13702030.434 10 0 59298 84600.00000 0 14293910.321 13668874.485 -16184602.343 10 0 59298 85500.00000 0 12353030.200 12781457.691 -18354555.430 10 0 59299 0.00000 0 10115028.845 11976355.003 -20169799.108 10 0 59299 900.00000 0 7627435.711 11301475.100 -21595020.230 10 0 59299 1800.00000 0 4947296.981 10795889.130 -22602371.535 10 0 59299 2700.00000 0 2139065.456 10488130.159 -23172023.763 10 0 59299 3600.00000 0 -727818.320 10394944.670 -23292569.765 10 0 59299 4500.00000 0 -3581556.997 10520551.356 -22961271.619 10 0 59299 5400.00000 0 -6350732.671 10856439.865 -22184144.188 10 0 59299 6300.00000 0 -8967036.671 11381720.920 -20975871.184 10 0 59299 7200.00000 0 -11367880.164 12064016.053 -19359552.749 10 0 59299 8100.00000 0 -13498776.899 12860852.474 -17366286.770 10 0 59299 9000.00000 0 -15315397.793 13721506.837 -15034589.406 10 0 59299 9900.00000 0 -16785209.822 14589221.949 -12409663.942 10 0 59299 10800.00000 0 -17888628.659 15403703.652 -9542530.523 10 0 59299 11700.00000 0 -18619634.581 16103792.092 -6489032.826 10 0 59299 12600.00000 0 -18985823.931 16630193.002 -3308741.077 10 0 59299 13500.00000 0 -19007892.779 16928151.098 -63773.671 10 0 59299 14400.00000 0 -18718574.205 16949949.388 3182437.953 10 0 59299 15300.00000 0 -18161074.666 16657125.203 6366414.646 10 0 59299 16200.00000 0 -17387077.156 16022305.881 9425897.639 10 0 59299 17100.00000 0 -16454397.977 15030583.533 12301091.784 10 0 59299 18000.00000 0 -15424399.225 13680368.668 14935856.773 10 0 59299 18900.00000 0 -14359269.607 11983685.387 17278820.791 10 0 59299 19800.00000 0 -13319291.530 9965895.411 19284393.177 10 0 59299 20700.00000 0 -12360212.433 7664863.233 20913655.270 10 0 59299 21600.00000 0 -11530832.989 5129598.764 22135112.044 10 0 59299 22500.00000 0 -10870914.529 2418436.095 22925290.511 10 0 59299 23400.00000 0 -10409493.477 -403173.479 23269174.632 10 0 59299 24300.00000 0 -10163672.302 -3265160.403 23160470.191 10 0 59299 25200.00000 0 -10137935.614 -6095522.433 22601696.762 10 0 59299 26100.00000 0 -10324017.314 -8823084.519 21604107.409 10 0 59299 27000.00000 0 -10701321.318 -11380218.617 20187440.068 10 0 59299 27900.00000 0 -11237875.153 -13705411.711 18379507.561 10 0 59299 28800.00000 0 -11891773.737 -15745577.324 16215636.073 10 0 59299 29700.00000 0 -12613050.629 -17458017.256 13737964.310 10 0 59299 30600.00000 0 -13345896.876 -18811955.238 10994617.770 10 0 59299 31500.00000 0 -14031133.721 -19789582.006 8038774.566 10 0 59299 32400.00000 0 -14608835.621 -20386571.686 4927640.707 10 0 59299 33300.00000 0 -15020994.250 -20612050.891 1721354.062 10 0 59299 34200.00000 0 -15214113.166 -20488024.349 -1518162.701 10 0 59299 35100.00000 0 -15141625.709 -20048282.624 -4728379.383 10 0 59299 36000.00000 0 -14766036.223 -19336838.413 -7847344.598 10 0 59299 36900.00000 0 -14060696.184 -18405956.905 -10814859.938 10 0 59299 37800.00000 0 -13011141.593 -17313861.830 -13573621.175 10 0 59299 38700.00000 0 -11615935.677 -16122211.829 -16070306.350 10 0 59299 39600.00000 0 -9886980.864 -14893450.940 -18256591.314 10 0 59299 40500.00000 0 -7849285.343 -13688142.182 -20090074.648 10 0 59299 41400.00000 0 -5540191.412 -12562394.014 -21535095.184 10 0 59299 42300.00000 0 -3008094.646 -11565485.930 -22563426.893 10 0 59299 43200.00000 0 -310703.549 -10737791.766 -23154837.790 10 0 59299 44100.00000 0 2487091.782 -10109087.526 -23297501.481 10 0 59299 45000.00000 0 5315656.941 -9697315.390 -22988252.153 10 0 59299 45900.00000 0 8103258.380 -9507857.156 -22232676.287 10 0 59299 46800.00000 0 10778808.972 -9533349.788 -21045037.044 10 0 59299 47700.00000 0 13274601.197 -9754053.366 -19448030.151 10 0 59299 48600.00000 0 15528914.667 -10138758.662 -17472373.345 10 0 59299 49500.00000 0 17488388.752 -10646198.601 -15156234.675 10 0 59299 50400.00000 0 19110059.766 -11226906.052 -12544508.583 10 0 59299 51300.00000 0 20362975.503 -11825440.650 -9687952.169 10 0 59299 52200.00000 0 21229317.167 -12382890.619 -6642197.489 10 0 59299 53100.00000 0 21704979.312 -12839542.838 -3466659.197 10 0 59299 54000.00000 0 21799581.668 -13137606.091 -223359.592 10 0 59299 54900.00000 0 21535911.304 -13223869.383 3024304.337 10 0 59299 55800.00000 0 20948818.563 -13052179.397 6212825.421 10 0 59299 56700.00000 0 20083614.324 -12585628.676 9279854.970 10 0 59299 57600.00000 0 18994038.141 -11798358.699 12165447.912 10 0 59299 58500.00000 0 17739885.702 -10676898.896 14813257.256 10 0 59299 59400.00000 0 16384398.880 -9220983.209 17171652.176 10 0 59299 60300.00000 0 14991531.599 -7443808.792 19194736.203 10 0 59299 61200.00000 0 13623209.662 -5371726.064 20843244.516 10 0 59299 62100.00000 0 12336702.081 -3043373.966 22085302.780 10 0 59299 63000.00000 0 11182215.754 -508298.124 22897033.342 10 0 59299 63900.00000 0 10200814.735 2174888.391 23262998.309 10 0 59299 64800.00000 0 9422750.520 4940723.127 23176472.821 10 0 59299 65700.00000 0 8866271.432 7719397.199 22639545.484 10 0 59299 66600.00000 0 8536958.327 10439437.862 21663046.402 10 0 59299 67500.00000 0 8427611.203 13030459.003 20266306.652 10 0 59299 68400.00000 0 8518688.055 15425865.832 18476755.984 10 0 59299 69300.00000 0 8779274.343 17565402.810 16329368.438 10 0 59299 70200.00000 0 9168539.591 19397441.106 13865967.995 10 0 59299 71100.00000 0 9637617.876 20880913.285 11134408.578 10 0 59299 72000.00000 0 10131831.964 21986817.732 8187644.741 10 0 59299 72900.00000 0 10593167.185 22699233.364 5082710.924 10 0 59299 73800.00000 0 10962891.472 23015805.352 1879628.388 10 0 59299 74700.00000 0 11184212.425 22947684.053 -1359739.849 10 0 59299 75600.00000 0 11204861.123 22518921.600 -4572865.325 10 0 59299 76500.00000 0 10979495.739 21765352.521 -7697740.539 10 0 59299 77400.00000 0 10471825.420 20733005.337 -10674054.197 10 0 59299 78300.00000 0 9656366.405 19476111.108 -13444334.511 10 0 59299 79200.00000 0 8519757.262 18054790.956 -15955040.312 10 0 59299 80100.00000 0 7061577.766 16532517.420 -18157580.551 10 0 59299 81000.00000 0 5294635.955 14973453.730 -20009244.024 10 0 59299 81900.00000 0 3244709.197 13439780.072 -21474022.471 10 0 59299 82800.00000 0 949747.225 11989116.742 -22523311.750 10 0 59299 83700.00000 0 -1541433.229 10672150.458 -23136477.624 10 0 59299 84600.00000 0 -4170911.727 9530562.258 -23301274.713 10 0 59299 85500.00000 0 -6873815.814 8595343.714 -23014109.288 10 0 59300 0.00000 0 -9580775.201 7885572.630 -22280139.116 10 0 59300 900.00000 0 -12220579.455 7407701.308 -21113205.983 10 0 59300 1800.00000 0 -14722930.450 7155388.471 -19535600.058 10 0 59300 2700.00000 0 -17021175.942 7109885.736 -17577657.322 10 0 59300 3600.00000 0 -19054910.717 7240963.043 -15277195.768 10 0 59300 4500.00000 0 -20772334.994 7508337.257 -12678798.774 10 0 59300 5400.00000 0 -22132269.927 7863544.475 -9832957.990 10 0 59300 6300.00000 0 -23105743.279 8252177.550 -6795091.370 10 0 59300 7200.00000 0 -23677076.135 8616393.615 -3624455.480 10 0 59300 8100.00000 0 -23844422.686 8897583.851 -382974.036 10 0 59300 9000.00000 0 -23619738.677 9039089.891 2865992.877 10 0 59300 9900.00000 0 -23028178.955 8988848.605 6058912.475 10 0 59300 10800.00000 0 -22106949.747 8701849.686 9133348.493 10 0 59300 11700.00000 0 -20903665.291 8142298.470 12029208.246 10 0 59300 12600.00000 0 -19474280.263 7285389.419 14689940.276 10 0 59300 13500.00000 0 -17880687.976 6118612.906 17063656.857 10 0 59300 14400.00000 0 -16188088.606 4642538.629 19104157.644 10 0 59300 15300.00000 0 -14462241.250 2871042.163 20771833.368 10 0 59300 16200.00000 0 -12766717.860 830965.450 22034431.825 10 0 59300 17100.00000 0 -11160276.100 -1438773.422 22867671.819 10 0 59300 18000.00000 0 -9694462.062 -3888582.192 23255694.390 10 0 59300 18900.00000 0 -8411542.861 -6460047.772 23191344.481 10 0 59300 19800.00000 0 -7342854.131 -9088161.958 22676279.809 10 0 59300 20700.00000 0 -6507629.160 -11703825.337 21720907.256 10 0 59300 21600.00000 0 -5912355.398 -14236524.523 20344150.415 10 0 59300 22500.00000 0 -5550681.693 -16617071.394 18573054.987 10 0 59300 23400.00000 0 -5403876.514 -18780291.204 16442241.555 10 0 59300 24300.00000 0 -5441814.553 -20667549.432 13993217.730 10 0 59300 25200.00000 0 -5624447.516 -22229014.514 11273563.937 10 0 59300 26100.00000 0 -5903695.378 -23425564.916 8336009.010 10 0 59300 27000.00000 0 -6225677.419 -24230263.993 5237413.457 10 0 59300 27900.00000 0 -6533189.043 -24629344.087 2037679.438 10 0 59300 28800.00000 0 -6768320.701 -24622661.293 -1201392.292 10 0 59300 29700.00000 0 -6875109.921 -24223603.929 -4417277.721 10 0 59300 30600.00000 0 -6802116.261 -23458459.752 -7547916.029 10 0 59300 31500.00000 0 -6504812.532 -22365268.872 -10532885.918 10 0 59300 32400.00000 0 -5947693.203 -20992210.139 -13314550.936 10 0 59300 33300.00000 0 -5106012.263 -19395587.184 -15839153.601 10 0 59300 34200.00000 0 -3967077.874 -17637496.592 -18057838.765 10 0 59300 35100.00000 0 -2531048.881 -15783273.450 -19927588.057 10 0 59300 36000.00000 0 -811198.189 -13898818.533 -21412048.453 10 0 59300 36900.00000 0 1166370.422 -12047916.492 -22482239.639 10 0 59300 37800.00000 0 3363543.505 -10289655.017 -23117126.611 10 0 59300 38700.00000 0 5731526.742 -8676051.287 -23304045.986 10 0 59300 39600.00000 0 8212629.859 -7249984.193 -23038976.583 10 0 59300 40500.00000 0 10742437.256 -6043518.809 -22326647.343 10 0 59300 41400.00000 0 13252277.360 -5076694.057 -21180478.244 10 0 59300 42300.00000 0 15671890.399 -4356825.887 -19622352.777 10 0 59300 43200.00000 0 17932185.053 -3878357.157 -17682223.667 10 0 59300 44100.00000 0 19967969.489 -3623262.633 -15397556.824 10 0 59300 45000.00000 0 21720541.951 -3561994.086 -12812622.053 10 0 59300 45900.00000 0 23140030.980 -3654927.153 -9977642.562 10 0 59300 46800.00000 0 24187384.844 -3854249.641 -6947818.780 10 0 59300 47700.00000 0 24835923.924 -4106211.319 -3782245.419 10 0 59300 48600.00000 0 25072388.106 -4353638.779 -542743.633 10 0 59300 49500.00000 0 24897432.823 -4538606.721 2707367.427 10 0 59300 50400.00000 0 24325551.207 -4605149.544 5904533.304 10 0 59300 51300.00000 0 23384425.061 -4501894.914 8986233.845 10 0 59300 52200.00000 0 22113732.433 -4184504.134 11892232.047 10 0 59300 53100.00000 0 20563463.523 -3617812.691 14565774.824 10 0 59300 54000.00000 0 18791818.152 -2777577.592 16954719.870 10 0 59300 54900.00000 0 16862776.099 -1651755.700 19012564.757 10 0 59300 55800.00000 0 14843445.458 -241258.091 20699357.056 10 0 59300 56700.00000 0 12801303.079 1439851.437 21982467.498 10 0 59300 57600.00000 0 10801444.924 3364721.327 22837211.686 10 0 59300 58500.00000 0 8903962.760 5494623.969 23247309.499 10 0 59300 59400.00000 0 7161557.081 7780374.248 23205175.155 10 0 59300 60300.00000 0 5617484.989 10164193.838 22712034.541 10 0 59300 61200.00000 0 4303926.755 12581941.784 21777869.961 10 0 59300 62100.00000 0 3240836.309 14965617.259 20421195.792 10 0 59300 63000.00000 0 2435320.077 17246029.809 18668671.609 10 0 59300 63900.00000 0 1881566.335 19355526.077 16554562.149 10 0 59300 64800.00000 0 1561324.234 21230660.593 14120056.048 10 0 59300 65700.00000 0 1444909.028 22814701.116 11412457.415 10 0 59300 66600.00000 0 1492688.654 24059866.321 8484266.428 10 0 59300 67500.00000 0 1656987.373 24929205.220 5392166.643 10 0 59300 68400.00000 0 1884325.504 25398042.566 2195938.069 10 0 59300 69300.00000 0 2117901.007 25454932.289 -1042683.820 10 0 59300 70200.00000 0 2300209.213 25102081.379 -4261182.353 10 0 59300 71100.00000 0 2375691.677 24355227.783 -7397446.108 10 0 59300 72000.00000 0 2293304.231 23242978.140 -10390946.235 10 0 59300 72900.00000 0 2008897.768 21805632.998 -13183883.797 10 0 59300 73800.00000 0 1487312.947 20093547.615 -15722286.850 10 0 59300 74700.00000 0 704101.559 18165095.181 -17957037.694 10 0 59300 75600.00000 0 -353197.785 16084315.214 -19844812.029 10 0 59300 76500.00000 0 -1684284.107 13918342.740 -21348913.053 10 0 59300 77400.00000 0 -3275852.960 11734722.921 -22439985.010 10 0 59300 78300.00000 0 -5101902.682 9598720.665 -23096592.620 10 0 59300 79200.00000 0 -7124578.674 7570735.415 -23305654.701 10 0 59300 80100.00000 0 -9295524.292 5703927.647 -23062722.505 10 0 59300 81000.00000 0 -11557686.000 4042155.526 -22372095.679 10 0 59300 81900.00000 0 -13847501.207 2618308.107 -21246771.415 10 0 59300 82800.00000 0 -16097380.565 1453105.800 -19708225.189 10 0 59300 83700.00000 0 -18238383.317 554419.855 -17786024.645 10 0 59300 84600.00000 0 -20202975.087 -82858.717 -15517281.410 10 0 59300 85500.00000 0 -21927752.606 -476393.295 -12945949.205 10 0 59301 0.00000 0 -23356020.167 -655435.198 -10121980.144 10 0 59301 900.00000 0 -24440107.397 -659356.300 -7100354.165 10 0 59301 1800.00000 0 -25143329.105 -535742.472 -3940001.319 10 0 59301 2700.00000 0 -25441500.196 -338129.169 -702637.340 10 0 59301 3600.00000 0 -25323941.018 -123476.816 2548462.354 10 0 59301 4500.00000 0 -24793927.066 50504.532 5749724.351 10 0 59301 5400.00000 0 -23868563.375 128064.621 8838547.219 10 0 59301 6300.00000 0 -22578088.294 58038.151 11754552.115 10 0 59301 7200.00000 0 -20964636.735 -203729.000 14440786.623 10 0 59301 8100.00000 0 -19080516.610 -692258.298 16844855.923 10 0 59301 9000.00000 0 -16986073.320 -1431713.913 18919957.296 10 0 59301 9900.00000 0 -14747234.822 -2434149.227 20625796.595 10 0 59301 10800.00000 0 -12432843.016 -3698777.881 21929368.562 10 0 59301 11700.00000 0 -10111885.598 -5211799.686 22805586.284 10 0 59301 12600.00000 0 -7850745.890 -6946787.528 23237748.777 10 0 59301 13500.00000 0 -5710586.207 -8865617.399 23217839.479 10 0 59301 14400.00000 0 -3744973.513 -10919900.718 22746652.060 10 0 59301 15300.00000 0 -1997844.934 -13052857.165 21833743.569 10 0 59301 16200.00000 0 -501895.359 -15201548.309 20497218.227 10 0 59301 17100.00000 0 722548.960 -17299377.885 18763348.283 10 0 59301 18000.00000 0 1668127.577 -19278754.065 16666041.201 10 0 59301 18900.00000 0 2340492.857 -21073803.230 14246164.951 10 0 59301 19800.00000 0 2757808.648 -22623023.245 11550745.427 10 0 59301 20700.00000 0 2949724.838 -23871767.289 8632052.039 10 0 59301 21600.00000 0 2955873.368 -24774456.839 5546589.110 10 0 59301 22500.00000 0 2823950.484 -25296433.745 2354012.098 10 0 59301 23400.00000 0 2607466.497 -25415376.546 -884011.279 10 0 59301 24300.00000 0 2363257.532 -25122223.796 -4104974.237 10 0 59301 25200.00000 0 2148863.080 -24421567.249 -7246717.332 10 0 59301 26100.00000 0 2019878.317 -23331499.520 -10248606.763 10 0 59301 27000.00000 0 2027391.001 -21882922.568 -13052683.715 10 0 59301 27900.00000 0 2215609.238 -20118345.170 -15604764.349 10 0 59301 28800.00000 0 2619778.636 -18090218.068 -17855470.898 10 0 59301 29700.00000 0 3264475.814 -15858874.082 -19761175.474 10 0 59301 30600.00000 0 4162350.168 -13490156.397 -21284839.593 10 0 59301 31500.00000 0 5313367.818 -11052831.128 -22396733.848 10 0 59301 32400.00000 0 6704591.528 -8615889.097 -23075024.094 10 0 59301 33300.00000 0 8310508.788 -6245846.725 -23306212.361 10 0 59301 34200.00000 0 10093897.833 -4004156.604 -23085422.900 10 0 59301 35100.00000 0 12007199.301 -1944834.412 -22416526.204 10 0 59301 36000.00000 0 13994340.051 -112400.762 -21312096.374 10 0 59301 36900.00000 0 15992936.285 1459775.635 -19793200.137 10 0 59301 37800.00000 0 17936786.588 2750663.096 -17889018.870 10 0 59301 38700.00000 0 19758552.246 3752229.162 -15636308.274 10 0 59301 39600.00000 0 21392513.061 4469550.157 -13078703.858 10 0 59301 40500.00000 0 22777282.484 4920361.806 -10265883.906 10 0 59301 41400.00000 0 23858366.315 5134068.519 -7252605.066 10 0 59301 42300.00000 0 24590454.854 5150252.442 -4097629.177 10 0 59301 43200.00000 0 24939349.017 5016745.601 -862562.862 10 0 59301 44100.00000 0 24883436.136 4787347.887 2389366.025 10 0 59301 45000.00000 0 24414650.453 4519289.713 5594568.905 10 0 59301 45900.00000 0 23538875.671 4270549.732 8690366.705 10 0 59301 46800.00000 0 22275771.390 4097144.697 11616242.080 10 0 59301 47700.00000 0 20658030.617 4050509.790 14315046.251 10 0 59301 48600.00000 0 18730100.528 4175083.604 16734134.419 10 0 59301 49500.00000 0 16546422.008 4506202.705 18826405.659 10 0 59301 50400.00000 0 14169264.378 5068396.608 20551225.754 10 0 59301 51300.00000 0 11666248.685 5874156.057 21875214.662 10 0 59301 52200.00000 0 9107665.714 6923226.506 22772883.742 10 0 59301 53100.00000 0 6563702.870 8202455.576 23227111.514 10 0 59301 54000.00000 0 4101696.797 9686199.339 23229450.562 10 0 59301 54900.00000 0 1783526.416 11337268.424 22780261.832 10 0 59301 55800.00000 0 -336745.915 13108372.185 21888676.159 10 0 59301 56700.00000 0 -2214888.948 14943998.650 20572386.196 10 0 59301 57600.00000 0 -3818091.852 16782650.181 18857275.043 10 0 59301 58500.00000 0 -5126065.607 18559340.567 16776890.678 10 0 59301 59400.00000 0 -6131614.543 20208249.131 14371777.894 10 0 59301 60300.00000 0 -6840658.143 21665421.609 11688681.608 10 0 59301 61200.00000 0 -7271705.788 22871406.209 8779637.524 10 0 59301 62100.00000 0 -7454809.553 23773716.497 5700967.702 10 0 59301 63000.00000 0 -7430041.182 24329020.263 2512199.948 10 0 59301 63900.00000 0 -7245558.489 24504965.060 -725068.864 10 0 59301 64800.00000 0 -6955342.867 24281566.065 -3948344.848 10 0 59301 65700.00000 0 -6616702.553 23652099.884 -7095423.417 10 0 59301 66600.00000 0 -6287645.582 22623467.793 -10105568.507 10 0 59301 67500.00000 0 -6024231.451 21216013.590 -12920663.849 10 0 59301 68400.00000 0 -5878011.175 19462803.255 -15486315.852 10 0 59301 69300.00000 0 -5893661.847 17408394.972 -17752888.509 10 0 59301 70200.00000 0 -6106914.025 15107148.775 -19676451.865 10 0 59301 71100.00000 0 -6542858.578 12621143.588 -21219626.982 10 0 59301 72000.00000 0 -7214704.451 10017785.477 -22352311.764 10 0 59301 72900.00000 0 -8123040.834 7367203.557 -23052273.887 10 0 59301 73800.00000 0 -9255636.874 4739538.994 -23305598.981 10 0 59301 74700.00000 0 -10587790.342 2202237.559 -23106984.374 10 0 59301 75600.00000 0 -12083214.157 -182543.432 -22459871.091 10 0 59301 76500.00000 0 -13695427.406 -2360306.749 -21376409.416 10 0 59301 77400.00000 0 -15369596.128 -4286266.644 -19877256.146 10 0 59301 78300.00000 0 -17044749.806 -5926993.714 -17991204.757 10 0 59301 79200.00000 0 -18656282.862 -7261583.138 -15754652.963 10 0 59301 80100.00000 0 -20138637.279 -8282295.558 -13210915.642 10 0 59301 81000.00000 0 -21428053.637 -8994641.906 -10409394.611 10 0 59301 81900.00000 0 -22465273.674 -9416907.038 -7404620.199 10 0 59301 82800.00000 0 -23198078.358 -9579131.166 -4255183.074 10 0 59301 83700.00000 0 -23583551.636 -9521591.854 -1022577.665 10 0 59301 84600.00000 0 -23589971.131 -9292851.455 2230018.818 10 0 59301 85500.00000 0 -23198242.828 -8947454.248 5439005.686 99